Regional Weather Roundup
Issued by NWS Mt. Holly, NJ

Home | Current Version | Previous Version | Text Only | Print | Product List | Glossary On
Versions: 1 2 3 4 5 6 7 8 9 10 11 12 13 14 15 16 17 18 19 20 21 22 23 24 25 26 27 28 29 30 31 32 33 34 35 36 37 38 39 40 41 42 43 44 45 46 47 48 49 50
000
ASUS41 KPHI 020111
RWRPHI

REGIONAL WEATHER ROUNDUP
NATIONAL WEATHER SERVICE MOUNT HOLLY NJ
900 PM EDT MON JUN 01 2015

NOTE:  "FAIR" INDICATES FEW OR NO CLOUDS BELOW 12,000 FEET WITH NO
SIGNIFICANT WEATHER AND/OR OBSTRUCTIONS TO VISIBILITY.

 * = STATION DOES NOT REPORT PRECIPITATION (E.G. RAIN, SNOW, ETC.)
        OR FOG.

NJZ015>026-020200-
SOUTHERN NEW JERSEY

CITY           SKY/WX    TMP DP  RH WIND       PRES   REMARKS
POMONA         LGT RAIN  60  58  92 VRB5      30.08R
RIO GRANDE*    CLOUDY    70  64  83 SW9G20    30.03R
MILLVILLE      LGT RAIN  65  64  97 E10       30.03S
WRIGHTSTOWN    RAIN      56  56  99 NE10      30.07S FOG
MOUNT HOLLY    TSTM      57  56  96 E8        30.07S FOG
TRENTON        RAIN      57  55  93 E10       30.09R

$$
NJZ001>014-020200-
NORTHERN NEW JERSEY

CITY           SKY/WX    TMP DP  RH WIND       PRES   REMARKS
SUSSEX         LGT RAIN  52  50  93 NE12      30.15S
ANDOVER*         N/A     53  52  96 NE3       30.14R
MORRISTOWN     LGT RAIN  61  59  94 NE10      30.15R FOG
NEWARK         LGT RAIN  55  54  95 NE12      30.14R FOG
TETERBORO      LGT RAIN  54  51  90 E7        30.13R
CALDWELL       LGT RAIN  54  51  90 E6        30.15R FOG
SOMERVILLE     LGT RAIN  56  53  90 NE7       30.11R FOG
ALLAIRE*       CLOUDY    55  48  76 NE16G22   30.11R
TOMS RIVER*    CLOUDY   N/A N/A N/A NE13      30.09S

$$
PAZ043-044-047-054-055-060>062-066>071-020200-
EASTERN PENNSYLVANIA

CITY           SKY/WX    TMP DP  RH WIND       PRES   REMARKS
PHILADELPHIA   TSTM      61  58  90 NE10G21   30.05F FOG
NORTH PHILA    RAIN      60  55  83 E13       30.09F
BLUE BELL      CLOUDY    59  57  94 NE7       30.06F
DOYLESTOWN     LGT RAIN  54  54 100 NE7       30.08S
QUAKERTOWN*    CLOUDY    55  55 100 NE7       30.10S
POTTSTOWN      LGT RAIN  56  56 100 NE7       30.09R
LANCASTER      LGT RAIN  61  59  93 E12       30.06R
COATESVILLE    CLOUDY    57  57 100 NE6       30.06F
READING        LGT RAIN  59  57  93 NE7       30.07R FOG
ALLENTOWN      CLOUDY    58  55  90 E10       30.11R
MOUNT POCONO   FOG       51  49  92 E10       30.11S VSB 1/2
HAZLETON       CLOUDY    55  54  94 E5        30.12S FOG
WILKES BARRE   CLOUDY    57  52  83 VRB5      30.11R

$$
DEZALL-MDZ008-012-015-019-020-020200-
DELAWARE AND EASTERN MARYLAND

CITY           SKY/WX    TMP DP  RH WIND       PRES   REMARKS
WILMINGTON     LGT RAIN  62  60  93 NE16      30.03S
DOVER          TSTM      69  69 100 N6        29.99R FOG
GEORGETOWN     CLOUDY    75  68  78 S10       30.01R
PATUXENT       CLOUDY    70  66  87 S6        29.96F
OCEAN CITY     CLOUDY    69  67  93 SW6       30.01R
WALLOPS ISLAND CLOUDY    72  70  93 S15       30.01S
CAMBRIDGE      CLOUDY    72  68  88 SE7       29.99R
SALISBURY      TSTM      72  66  81 W10G18    30.03R

$$
PAZ001-021-NYZ056-072-MDZ011-DCZ001-020200-
OTHER NEARBY LOCATIONS

CITY           SKY/WX    TMP DP  RH WIND       PRES   REMARKS
HARRISBURG     LGT RAIN  64  61  90 E7        30.05R
STATE COLLEGE  CLOUDY    57  54  88 NE9       30.10S FOG
WILLIAMSPORT   CLOUDY    61  51  70 NW5       30.10R
BINGHAMTON     CLOUDY    52  52 100 NW6       30.11S FOG
NEW YORK CITY  CLOUDY    54  51  90 E17       30.16R FOG
BALTIMORE      TSTM      68  67  96 E7        30.01R VSB 1
WASHINGTON DC  TSTM      72  66  83 N9        30.01R

$$


USA.gov is the U.S. government's official web portal to all federal, state and local government web resources and services.